Wind_Speed
20 22 24 25 27 30 33 35 37 39 40 40 41 42 43 46 48 49 49 49 48 48 48 49 48 47 49 49 50 50 49 48 47 47 47 46 45 43 42 41 41 40 40
19 21 23 25 27 29 32 34 37 39 41 43 44 44 45 46 47 48 48 48 48 48 48 48 48 48 49 49 49 49 48 47 46 44 44 43 43 41 41 41 40 39 39
19 21 23 25 27 29 30 33 35 37 39 41 43 45 45 45 45 46 47 49 49 48 47 46 46 46 47 46 45 45 44 44 43 42 41 40 40 41 41 40 40 40 39
20 22 24 26 28 29 30 31 33 35 37 39 41 43 44 44 45 46 46 46 47 46 47 47 46 45 44 43 43 42 42 42 41 40 40 40 41 41 41 41 40 39 37
19 22 24 26 27 28 29 30 32 34 36 37 39 41 43 43 44 45 45 45 46 47 47 47 45 43 42 41 40 41 41 40 39 39 39 40 41 40 39 38 37 35 36
19 21 23 25 26 26 28 29 32 34 36 37 38 39 41 43 44 45 46 46 45 44 44 43 43 42 41 40 40 39 39 38 39 39 39 39 39 39 39 36 35 35 35
20 21 21 23 23 25 26 29 31 34 36 37 37 38 39 39 40 41 42 43 42 40 41 40 40 40 39 39 39 38 38 39 39 38 37 37 37 37 37 36 35 35 34
21 21 22 23 24 25 28 29 31 33 35 35 36 37 38 38 38 38 38 38 38 38 37 37 37 37 38 37 38 38 36 37 36 36 36 36 36 36 36 36 35 35 34
21 22 23 24 26 27 29 29 30 31 32 34 35 36 37 37 38 37 36 37 36 36 35 35 35 34 35 36 36 36 36 37 36 35 35 36 36 35 34 34 33 34 33
22 23 25 26 27 28 29 29 30 31 32 32 34 34 34 35 35 35 36 36 35 34 34 35 35 35 35 36 36 35 36 36 36 36 35 35 35 34 33 33 33 33 32
24 25 27 28 28 29 28 29 30 31 31 31 32 33 33 33 33 34 34 34 33 33 33 34 35 36 36 36 36 36 36 36 36 35 34 34 34 33 33 33 33 32 31
26 27 28 29 29 29 29 29 30 31 31 31 31 32 32 32 31 32 32 33 32 32 32 33 34 35 36 37 37 37 36 35 35 33 33 33 33 32 32 33 32 32 31
27 29 29 30 30 30 30 31 31 32 32 31 31 31 31 31 31 31 30 30 31 32 32 33 34 34 34 35 34 34 34 33 32 31 32 32 32 32 32 31 31 31 31
28 29 30 30 30 31 32 32 32 33 32 31 31 31 31 31 30 30 29 29 30 30 31 32 33 33 33 33 32 32 32 31 31 30 31 31 31 32 31 31 30 30 30
30 30 30 30 31 31 31 32 33 33 32 32 32 31 31 31 29 29 28 28 29 28 29 30 31 31 31 31 31 30 30 31 31 31 31 31 31 31 31 30 29 29 29
31 31 31 32 32 32 33 33 34 34 34 34 33 32 32 30 29 28 28 27 28 28 28 28 28 28 28 29 29 29 29 30 31 32 31 31 31 31 30 30 29 29 29
32 32 33 33 33 34 34 34 34 34 34 33 33 33 32 31 29 28 28 26 27 27 27 28 27 27 27 27 28 29 29 30 30 31 31 31 31 30 30 30 29 29 29
34 34 34 34 34 34 34 34 35 35 34 34 33 33 32 31 29 28 28 27 26 26 26 26 26 26 27 28 29 29 29 29 30 30 30 30 30 30 29 29 29 30 30
35 36 36 35 35 35 35 35 35 35 34 33 32 31 31 30 30 28 27 26 25 25 25 26 27 27 28 29 30 30 29 29 29 29 29 30 30 30 30 30 30 30 30
37 37 37 36 36 36 36 36 36 35 34 33 31 31 30 29 28 27 26 26 25 25 25 26 27 28 28 29 30 30 29 29 29 29 29 29 30 30 30 30 29 29 30
38 38 38 37 37 37 37 37 37 36 34 33 32 31 30 29 28 27 26 26 26 26 26 26 27 27 28 28 29 30 30 30 30 30 30 30 30 30 30 30 30 30 30
38 39 39 39 39 39 38 38 37 35 34 33 32 32 31 30 28 27 27 26 26 27 27 27 28 29 29 29 29 30 30 31 31 31 30 30 30 29 30 30 31 31 31
39 39 40 40 40 40 39 39 37 36 35 34 33 33 32 31 29 28 27 27 27 27 27 28 28 28 28 29 29 29 30 31 31 31 31 31 30 30 30 30 30 30 31
40 40 41 41 41 40 40 39 38 36 35 34 34 33 32 31 30 29 28 27 26 26 27 27 27 28 28 28 28 28 29 29 30 30 31 31 31 31 31 31 30 30 31
41 41 41 42 41 41 40 39 38 37 36 35 34 33 32 31 29 29 29 28 28 27 27 27 27 27 28 28 28 28 29 30 30 31 31 31 31 31 32 32 32 31 31
42 42 42 42 41 40 39 38 38 37 36 35 35 34 32 31 30 29 29 29 28 28 27 27 27 27 27 28 28 29 29 30 30 31 31 31 31 32 32 32 32 33 33
Wind_Direction
258 261 261 261 260 259 260 262 261 261 262 265 267 269 271 271 271 270 270 270 271 271 272 271 271 271 271 270 267 266 267 267 267 268 267 267 267 268 268 268 272 274 276
265 264 264 265 265 265 265 264 263 264 265 267 270 271 273 273 271 269 270 271 272 273 273 272 271 270 270 270 268 267 266 266 267 267 267 267 267 267 268 268 271 273 274
270 270 270 270 269 269 269 268 267 267 268 270 273 273 273 272 271 270 271 271 271 272 271 271 271 270 270 270 268 266 265 265 265 267 267 266 267 267 268 269 270 271 272
276 276 276 273 272 273 273 272 271 271 272 273 274 274 274 273 272 271 272 271 270 270 270 270 270 270 269 268 264 263 265 265 266 265 264 266 266 268 268 269 269 271 271
286 284 281 277 276 278 279 276 275 276 277 278 278 277 275 276 275 273 273 272 272 271 270 269 268 266 266 264 263 263 263 263 264 262 263 265 265 267 267 268 268 270 271
297 294 289 283 280 281 283 280 280 280 280 282 282 281 280 278 277 276 275 274 275 273 271 269 266 265 264 264 264 263 262 262 262 263 264 265 266 266 265 267 267 269 271
305 300 296 291 286 284 284 284 285 284 283 283 284 284 282 281 279 277 275 274 275 274 272 269 265 263 262 262 261 260 261 261 262 262 263 263 263 264 264 266 267 269 269
315 308 302 296 290 289 288 288 288 286 285 286 286 286 283 282 280 279 277 277 277 274 272 271 267 264 261 260 260 261 261 260 261 262 261 262 262 263 264 265 265 267 267
319 316 311 305 299 296 294 291 292 291 289 288 288 287 285 283 281 279 278 278 277 274 271 268 265 262 261 260 260 259 259 260 262 262 262 262 261 262 264 264 265 266 267
320 319 316 312 307 302 299 295 294 293 291 290 290 290 289 285 281 279 278 276 275 272 269 265 263 260 260 260 258 259 259 260 261 261 260 260 260 261 262 263 264 265 266
317 317 316 314 311 308 303 300 298 296 294 294 294 293 293 289 284 281 278 276 274 272 267 264 262 260 259 258 259 259 259 259 259 258 258 259 260 261 262 264 265 264 265
314 314 314 314 313 309 305 303 300 298 297 298 299 298 296 294 288 283 279 276 273 270 267 262 260 260 260 258 257 256 257 257 256 257 258 259 260 262 263 264 264 264 265
312 311 311 312 310 307 305 303 301 299 297 296 297 298 297 295 291 285 280 276 270 268 266 263 260 260 259 257 255 255 254 255 257 258 258 259 260 262 263 264 263 264 263
314 313 312 311 309 307 306 304 302 301 300 297 296 297 296 295 292 287 282 277 272 269 266 264 261 259 260 259 255 255 254 255 256 257 258 258 260 262 262 263 264 263 262
313 313 313 311 308 307 306 305 303 303 301 299 297 296 296 295 293 290 285 280 274 271 269 265 261 260 261 259 255 255 255 255 256 257 258 259 260 262 262 262 262 261 260
312 312 311 310 308 307 306 306 304 302 301 299 297 295 296 296 292 289 285 281 277 273 267 263 262 261 261 258 255 258 258 256 255 256 257 258 259 260 260 260 260 259 259
310 310 310 309 307 306 305 305 305 303 302 300 297 295 295 294 292 288 285 279 277 273 267 265 265 264 261 258 258 259 259 257 256 256 257 257 257 258 259 259 259 258 258
308 307 307 307 306 305 304 304 304 303 302 300 298 295 294 293 291 287 283 280 277 274 269 265 265 263 261 260 260 259 258 258 257 257 257 257 257 258 259 258 258 258 257
306 305 305 305 304 303 303 303 303 303 302 300 297 294 293 291 290 287 284 280 276 273 270 266 265 265 264 262 260 259 258 257 257 257 257 257 257 257 257 257 257 257 256
305 304 304 303 302 301 301 301 301 301 301 300 297 295 294 292 289 286 284 281 278 275 273 269 267 266 266 264 260 259 258 257 257 257 258 257 257 257 257 257 257 256 256
304 304 303 303 302 301 300 299 299 298 298 298 295 293 294 292 290 287 284 282 280 277 275 273 270 268 267 266 262 260 258 258 258 258 258 258 258 257 256 256 256 255 254
303 304 304 303 302 301 300 300 299 298 298 296 295 293 292 291 290 286 283 282 282 280 276 274 272 270 269 268 266 263 261 259 259 258 257 256 257 257 256 256 255 254 253
303 304 304 304 303 301 299 299 298 298 297 295 293 291 290 288 287 284 281 280 282 281 278 276 274 272 270 270 268 265 261 259 257 256 255 254 255 256 255 255 254 253 253
301 303 304 304 303 301 300 298 297 296 295 294 292 291 288 286 284 282 280 280 280 281 280 277 275 273 271 269 267 264 261 258 256 255 254 254 254 255 255 255 254 254 254
300 302 303 304 303 301 300 299 298 295 293 293 292 290 287 285 282 281 280 279 279 280 280 278 276 274 272 268 264 263 261 258 257 255 254 254 254 254 254 254 254 255 255
299 300 302 303 302 301 300 299 298 296 293 291 290 288 285 283 281 280 279 278 278 278 277 277 277 275 273 268 264 262 261 259 258 257 255 254 254 254 254 255 255 255 256
Height
5672 5673 5674 5676 5678 5679 5681 5682 5683 5684 5684 5684 5684 5683 5682 5681 5679 5678 5677 5675 5673 5672 5670 5669 5668 5667 5666 5665 5664 5664 5663 5663 5664 5665 5665 5666 5667 5668 5668 5669 5670 5670 5669
5665 5665 5666 5667 5668 5669 5670 5670 5671 5672 5672 5672 5671 5670 5669 5667 5666 5665 5664 5662 5660 5659 5658 5656 5655 5654 5653 5651 5650 5650 5650 5650 5651 5651 5652 5654 5655 5656 5657 5658 5658 5659 5658
5657 5657 5658 5658 5659 5659 5659 5659 5659 5660 5659 5659 5658 5657 5655 5654 5652 5651 5650 5649 5648 5646 5645 5644 5642 5641 5640 5638 5637 5637 5637 5638 5639 5640 5642 5643 5644 5645 5646 5647 5648 5648 5648
5650 5649 5649 5649 5649 5649 5649 5648 5648 5648 5647 5646 5645 5644 5642 5640 5639 5637 5636 5635 5634 5633 5632 5631 5630 5628 5627 5626 5625 5625 5626 5627 5628 5629 5630 5632 5633 5634 5635 5636 5637 5637 5637
5642 5641 5640 5640 5639 5639 5639 5638 5637 5637 5636 5635 5633 5630 5628 5627 5625 5623 5622 5621 5620 5619 5618 5617 5616 5616 5615 5614 5614 5615 5615 5616 5617 5618 5619 5621 5622 5623 5625 5625 5626 5627 5627
5636 5634 5632 5631 5631 5630 5629 5628 5627 5626 5625 5623 5620 5618 5616 5614 5611 5609 5608 5607 5606 5605 5604 5604 5603 5603 5603 5603 5603 5604 5605 5606 5607 5608 5609 5611 5612 5613 5614 5615 5616 5617 5618
5630 5627 5625 5624 5622 5621 5620 5619 5617 5615 5613 5610 5607 5605 5603 5601 5598 5596 5594 5593 5592 5592 5591 5591 5591 5591 5592 5592 5593 5594 5595 5596 5597 5598 5599 5601 5602 5604 5605 5606 5607 5608 5608
5625 5622 5619 5616 5614 5613 5611 5609 5607 5604 5601 5599 5597 5594 5591 5589 5586 5584 5582 5580 5580 5579 5579 5579 5579 5580 5581 5582 5584 5585 5585 5586 5588 5589 5591 5592 5593 5594 5595 5597 5597 5598 5599
5619 5616 5613 5610 5607 5605 5602 5600 5597 5594 5591 5589 5586 5583 5580 5577 5574 5572 5570 5569 5569 5568 5568 5568 5568 5570 5571 5573 5574 5575 5576 5578 5578 5580 5581 5582 5583 5585 5586 5587 5588 5589 5590
5614 5610 5607 5603 5600 5596 5593 5590 5587 5584 5582 5579 5576 5572 5568 5565 5563 5561 5560 5559 5559 5558 5558 5558 5559 5560 5561 5563 5564 5566 5567 5569 5570 5571 5572 5573 5574 5575 5576 5578 5579 5580 5580
5609 5605 5601 5597 5593 5588 5585 5582 5579 5576 5573 5569 5566 5563 5559 5556 5553 5551 5550 5549 5548 5548 5547 5548 5549 5550 5551 5553 5555 5556 5558 5559 5560 5561 5562 5564 5565 5567 5568 5569 5570 5571 5572
5603 5599 5594 5590 5585 5581 5578 5574 5571 5567 5564 5560 5557 5553 5550 5546 5544 5542 5540 5539 5538 5538 5538 5538 5539 5540 5541 5543 5544 5546 5548 5549 5551 5552 5553 5555 5556 5558 5559 5560 5560 5561 5562
5596 5592 5588 5583 5579 5575 5571 5567 5563 5559 5555 5552 5549 5546 5542 5538 5535 5533 5531 5529 5529 5529 5528 5529 5530 5531 5531 5533 5535 5536 5538 5540 5541 5543 5544 5546 5547 5549 5550 5551 5552 5552 5553
5590 5586 5581 5576 5572 5568 5563 5559 5555 5551 5547 5544 5541 5538 5534 5531 5527 5525 5522 5521 5519 5519 5519 5519 5520 5521 5522 5523 5525 5527 5528 5530 5532 5533 5535 5537 5538 5540 5541 5542 5543 5544 5545
5583 5579 5574 5569 5565 5561 5556 5552 5548 5544 5540 5537 5534 5530 5527 5523 5520 5517 5514 5512 5511 5510 5510 5510 5510 5511 5512 5514 5516 5518 5519 5521 5523 5524 5526 5528 5529 5531 5532 5533 5534 5535 5536
5576 5572 5567 5563 5558 5553 5549 5544 5540 5536 5532 5528 5525 5521 5518 5514 5511 5508 5506 5504 5502 5502 5501 5501 5502 5503 5504 5505 5507 5508 5510 5512 5513 5515 5517 5518 5520 5521 5523 5524 5525 5526 5527
5569 5564 5559 5555 5550 5546 5541 5537 5532 5528 5524 5520 5516 5512 5509 5506 5503 5500 5498 5496 5494 5493 5493 5493 5494 5494 5495 5496 5498 5499 5501 5503 5504 5506 5507 5509 5511 5512 5513 5515 5516 5517 5519
5561 5556 5551 5547 5542 5538 5533 5529 5525 5520 5516 5511 5507 5504 5501 5497 5495 5492 5490 5488 5487 5485 5485 5485 5486 5486 5487 5488 5489 5491 5492 5494 5495 5497 5498 5500 5501 5503 5504 5506 5507 5508 5510
5552 5547 5543 5538 5534 5529 5525 5521 5516 5511 5507 5503 5499 5496 5492 5489 5486 5484 5482 5480 5479 5478 5478 5478 5478 5478 5479 5479 5480 5481 5483 5485 5486 5487 5489 5490 5492 5493 5495 5496 5498 5499 5501
5543 5538 5533 5529 5524 5520 5516 5512 5507 5503 5498 5494 5490 5487 5484 5481 5478 5476 5474 5473 5472 5471 5470 5470 5470 5470 5470 5470 5471 5472 5474 5475 5477 5478 5479 5481 5482 5484 5486 5487 5489 5490 5492
5533 5528 5524 5519 5515 5510 5506 5502 5498 5493 5489 5485 5482 5478 5476 5473 5470 5468 5466 5465 5464 5463 5463 5462 5462 5462 5462 5462 5462 5463 5464 5466 5467 5469 5470 5472 5473 5474 5476 5477 5479 5481 5482
5523 5518 5514 5509 5505 5500 5496 5492 5487 5483 5480 5476 5473 5469 5467 5464 5462 5460 5458 5457 5456 5455 5454 5454 5453 5453 5453 5453 5453 5453 5454 5455 5457 5458 5460 5462 5463 5465 5466 5468 5469 5471 5472
5512 5508 5503 5498 5494 5489 5485 5481 5477 5473 5469 5466 5463 5460 5457 5455 5453 5452 5450 5449 5447 5446 5445 5444 5444 5443 5443 5443 5443 5443 5444 5445 5446 5448 5450 5452 5453 5455 5456 5458 5459 5461 5462
5501 5497 5492 5487 5482 5478 5473 5469 5466 5462 5459 5456 5453 5450 5448 5446 5444 5443 5441 5440 5439 5437 5436 5435 5434 5434 5434 5433 5433 5433 5434 5435 5436 5438 5439 5441 5443 5445 5446 5448 5449 5451 5452
5490 5485 5481 5476 5471 5466 5462 5458 5454 5451 5447 5445 5442 5439 5437 5436 5434 5433 5432 5431 5429 5428 5427 5426 5425 5424 5424 5424 5423 5424 5424 5425 5426 5428 5429 5431 5433 5434 5436 5437 5439 5440 5442
5478 5473 5469 5464 5459 5455 5451 5447 5443 5439 5436 5433 5431 5429 5427 5425 5424 5423 5422 5421 5420 5419 5418 5417 5416 5415 5414 5414 5414 5414 5415 5415 5416 5417 5419 5421 5422 5424 5426 5427 5429 5430 5431